FW9985 Weather Reports


time (UTC)temp
C
wind
direction
speed
KPH
gust
KPH
rain 1hr
cm
rain 24hr
cm
rain mn
cm
humidity
%
barometer
mb
20260510070031 12 209 1.6 6.4 0.00 1.47 0.25 93 1009.4
20260510064530 12 209 6.4 9.7 0.03 1.47 0.25 93 1009.4
20260510063028 12 211 1.6 11.3 0.20 1.47 0.25 93 1009.4
20260510061533 12 209 6.4 11.3 0.20 1.47 0.25 95 1009.4
20260510060040 12 270 3.2 6.4 0.20 1.47 0.25 95 1010.0
20260510054537 12 300 8.0 33.8 0.18 1.47 0.23 96 1010.4
20260510053029 12 227 6.4 16.1 0.00 1.32 0.05 96 1010.7
20260510051533 12 187 4.8 8.0 0.00 1.32 0.05 96 1009.7
20260510050031 12 187 4.8 8.0 0.03 1.32 0.05 96 1009.6
20260510044530 12 187 6.4 9.7 0.25 1.32 0.05 96 1009.6
20260510043034 12 195 3.2 8.0 0.38 1.32 0.05 96 1009.5
20260510041528 12 350 3.2 12.9 0.41 1.32 0.05 95 1009.7
20260510040030 12 174 8.0 12.9 0.41 1.27 0.00 95 1009.4
20260510034532 12 360 0.0 12.9 0.20 1.09 1.07 95 1009.9
20260510033029 12 172 8.0 12.9 0.08 0.97 0.94 95 1009.0
20260510031531 12 226 0.0 8.0 0.03 0.91 0.89 95 1009.7
20260510030029 12 188 6.4 12.9 0.00 0.89 0.86 95 1009.1
20260510024530 12 153 3.2 11.3 0.03 0.91 0.86 95 1009.2
20260510023028 12 168 4.8 9.7 0.18 0.91 0.86 95 1009.3
20260510021528 12 0 0.0 8.0 0.41 0.91 0.86 94 1009.3
20260510020028 12 203 4.8 6.4 0.74 0.91 0.86 93 1009.5
20260510014535 12 0 0.0 16.1 0.71 0.91 0.84 92 1009.4
20260510013028 12 40 9.7 27.4 0.53 0.74 0.66 90 1009.5
20260510011531 13 259 3.2 29.0 0.30 0.51 0.43 82 1008.9
20260510010030 17 33 6.4 22.5 0.00 0.20 0.13 63 1008.0
20260510004529 17 198 11.3 19.3 0.00 0.23 0.13 61 1006.6
20260510003038 18 227 12.9 22.5 0.00 0.23 0.13 60 1007.0
20260510001530 18 228 12.9 25.7 0.00 0.23 0.13 59 1006.8
20260510000030 18 222 14.5 29.0 0.00 0.23 0.13 58 1006.7
20260509234537 18 252 19.3 32.2 0.00 0.23 0.13 57 1006.6
20260509233032 19 224 19.3 30.6 0.00 0.23 0.13 56 1006.3
20260509231535 19 229 27.4 38.6 0.00 0.23 0.13 54 1006.1
20260509230030 19 244 25.7 38.6 0.00 0.23 0.13 54 1006.1
20260509224533 19 216 24.1 46.7 0.00 0.23 0.13 54 1006.5
20260509223031 20 213 16.1 38.6 0.00 0.23 0.13 54 1006.3
20260509221530 20 216 22.5 35.4 0.00 0.23 0.13 55 1006.4
20260509220030 19 237 25.7 46.7 0.00 0.23 0.13 55 1006.4
20260509214532 20 205 19.3 38.6 0.00 0.23 0.13 56 1006.6
20260509213030 20 240 19.3 30.6 0.00 0.23 0.13 57 1006.6
20260509211528 20 217 24.1 38.6 0.00 0.23 0.13 58 1006.7
20260509210030 20 218 19.3 32.2 0.00 0.23 0.13 56 1006.7
20260509204530 19 231 22.5 38.6 0.00 0.23 0.13 56 1006.9
20260509203039 19 238 17.7 29.0 0.00 0.23 0.13 57 1007.0
20260509201530 19 238 11.3 37.0 0.00 0.23 0.13 59 1007.3
20260509200029 18 224 27.4 38.6 0.00 0.23 0.13 58 1007.6
20260509194531 18 229 19.3 29.0 0.00 0.23 0.13 61 1007.9
20260509193037 18 243 22.5 35.4 0.00 0.23 0.13 62 1007.8
20260509191538 18 256 24.1 32.2 0.00 0.23 0.13 62 1008.1
20260509190029 18 248 16.1 33.8 0.00 0.23 0.13 65 1008.3
20260509184538 17 249 16.1 37.0 0.00 0.23 0.13 66 1008.4
20260509183032 17 269 19.3 32.2 0.00 0.23 0.13 67 1008.4
20260509181544 17 225 22.5 37.0 0.00 0.23 0.13 69 1008.3
20260509180032 16 221 24.1 37.0 0.00 0.23 0.13 72 1008.4
20260509174531 16 250 19.3 27.4 0.00 0.23 0.13 74 1008.7
20260509173029 16 257 19.3 27.4 0.00 0.23 0.13 76 1008.6
20260509171531 15 237 24.1 40.2 0.00 0.23 0.13 75 1008.8
20260509170042 15 257 17.7 32.2 0.00 0.23 0.13 77 1008.7
20260509164536 13 223 19.3 29.0 0.00 0.23 0.13 82 1008.6
20260509163033 14 245 12.9 29.0 0.00 0.23 0.13 82 1008.7
20260509161534 14 228 19.3 29.0 0.00 0.23 0.13 80 1008.7
20260509160036 13 273 11.3 25.7 0.00 0.23 0.13 81 1008.4
20260509154534 13 257 14.5 25.7 0.00 0.23 0.13 82 1008.2
20260509153038 14 235 19.3 29.0 0.00 0.23 0.13 83 1008.1
20260509151530 13 232 17.7 30.6 0.00 0.23 0.13 86 1008.1
20260509150031 13 279 17.7 29.0 0.00 0.23 0.13 88 1008.0
20260509144532 13 243 17.7 29.0 0.00 0.23 0.13 91 1008.1
20260509143033 12 243 9.7 24.1 0.00 0.23 0.13 94 1008.1
20260509141532 11 234 11.3 20.9 0.00 0.23 0.13 95 1008.2
20260509140032 11 247 6.4 20.9 0.00 0.23 0.13 94 1008.4
20260509134531 11 241 14.5 22.5 0.00 0.23 0.13 95 1008.6
20260509133029 11 238 14.5 22.5 0.03 0.23 0.13 95 1008.5
20260509131535 10 234 12.9 20.9 0.03 0.23 0.13 95 1008.6
20260509130032 10 207 12.9 20.9 0.03 0.23 0.13 95 1008.5
20260509124530 10 227 9.7 17.7 0.00 0.20 0.10 95 1008.5
20260509123029 10 239 9.7 16.1 0.00 0.20 0.10 95 1008.8
20260509121531 10 203 9.7 19.3 0.00 0.20 0.10 95 1008.8
20260509120038 10 217 11.3 19.3 0.00 0.20 0.10 95 1008.9
20260509114533 10 229 11.3 17.7 0.00 0.20 0.10 95 1008.9
20260509113032 10 223 11.3 19.3 0.00 0.20 0.10 95 1008.7
20260509111531 10 229 14.5 22.5 0.00 0.20 0.10 94 1008.5
20260509110035 10 200 11.3 19.3 0.03 0.20 0.10 94 1008.3
20260509104533 10 229 9.7 19.3 0.03 0.20 0.10 94 1008.3
20260509103034 10 211 8.0 19.3 0.03 0.20 0.10 94 1008.2
20260509101543 10 211 9.7 16.1 0.03 0.20 0.10 94 1008.3
20260509100030 10 210 9.7 17.7 0.00 0.18 0.08 94 1008.4
20260509094531 10 235 6.4 12.9 0.03 0.18 0.08 93 1008.6
20260509093030 10 199 8.0 14.5 0.03 0.18 0.08 94 1008.7
20260509091534 10 186 6.4 14.5 0.03 0.18 0.08 94 1008.6
20260509090030 10 196 3.2 8.0 0.03 0.18 0.08 94 1008.7
20260509084531 10 205 6.4 11.3 0.00 0.15 0.05 94 1009.1
20260509083033 10 190 3.2 8.0 0.00 0.15 0.05 95 1009.1
20260509081534 9 225 3.2 8.0 0.03 0.15 0.05 95 1009.2
20260509080033 9 165 6.4 9.7 0.03 0.15 0.05 95 1009.2
20260509074530 9 156 6.4 9.7 0.03 0.15 0.05 95 1009.4
20260509073049 9 172 1.6 9.7 0.03 0.15 0.05 95 1009.3
20260509071536 9 143 8.0 14.5 0.00 0.13 0.03 95 1009.2